Wind_Speed
93 92 92 91 91 90 89 88 86 84 82 80 79 78 77 75 73 72 70 69 68 66 64 63 63 62 61 58 56 54 52 50 47 44 42 40 39 38 38 37 37 36 35
86 85 83 82 82 82 83 84 85 84 84 83 82 82 81 79 77 75 73 72 71 70 67 66 65 64 63 61 59 56 55 53 50 47 45 43 41 40 39 39 38 38 37
75 74 72 71 71 71 73 75 77 79 81 83 84 85 84 83 80 78 76 75 74 73 71 70 69 67 65 64 62 60 57 56 53 50 48 45 43 42 40 40 40 39 38
65 64 64 63 63 63 64 66 69 72 75 79 82 85 86 86 84 82 80 78 76 75 74 73 72 71 69 67 65 63 60 58 55 53 51 48 46 44 42 41 40 41 40
60 59 59 59 59 59 60 62 63 66 69 73 78 82 85 87 87 86 84 81 79 78 76 75 75 74 72 70 68 66 63 60 58 55 53 51 49 46 44 42 41 41 42
57 56 55 55 56 57 59 60 61 62 64 67 72 77 82 86 88 89 88 86 83 81 79 78 77 76 75 73 71 69 68 64 60 58 55 52 50 49 46 44 43 42 43
54 53 52 51 52 54 56 59 60 61 62 63 66 71 76 83 88 89 90 89 87 84 82 80 79 77 75 74 73 72 71 69 65 60 57 54 52 50 48 46 45 43 43
52 50 49 47 47 49 51 54 58 60 61 62 63 65 69 76 84 88 91 92 91 88 86 83 81 79 77 74 73 74 74 73 70 65 59 55 53 50 49 48 46 43 43
48 46 45 44 44 44 46 49 53 58 60 61 62 62 64 69 77 84 90 92 93 92 89 86 84 81 78 76 73 73 74 75 73 69 65 59 56 53 50 49 48 45 43
45 43 42 41 41 41 42 44 47 52 57 59 62 63 63 64 69 77 86 91 94 94 92 90 88 86 80 77 73 71 71 75 76 73 69 64 60 56 53 50 49 47 45
42 41 39 38 37 37 38 40 43 47 52 56 60 62 63 63 64 69 77 88 93 95 95 93 91 89 86 82 75 71 70 72 76 75 72 68 64 60 57 52 50 48 47
41 40 38 37 37 36 36 36 38 42 47 52 57 61 62 62 63 64 68 78 89 94 96 96 94 92 90 87 81 74 70 70 74 75 73 71 67 63 60 56 53 49 47
40 40 40 39 38 37 37 36 36 38 42 47 52 57 62 63 63 63 63 69 81 91 96 97 97 95 93 90 87 81 73 70 71 74 74 72 70 66 63 59 56 52 50
44 44 44 43 42 40 39 37 37 37 38 42 47 53 58 62 63 62 62 64 72 84 93 97 98 98 95 92 88 85 80 74 71 72 73 73 71 68 65 62 58 56 53
49 49 49 48 46 45 42 40 38 37 37 39 43 48 54 59 62 62 61 61 65 75 87 95 97 98 97 94 90 87 83 78 74 73 72 73 72 69 67 64 61 58 56
53 53 52 52 50 48 46 43 41 38 37 37 40 44 49 55 60 61 61 60 61 67 78 89 94 95 97 95 91 88 85 81 77 75 74 73 72 70 68 66 63 61 58
58 58 56 54 52 50 48 46 43 40 38 37 38 41 45 51 56 60 60 59 59 61 70 81 89 93 93 93 91 89 86 83 80 76 74 74 73 71 69 67 65 63 60
61 61 57 53 48 45 44 44 44 42 38 37 37 39 42 46 52 56 58 58 57 57 62 73 84 90 90 90 90 89 87 85 82 80 76 74 73 71 70 68 67 64 62
64 60 54 46 39 35 35 37 40 41 39 37 36 37 39 43 48 52 55 56 55 55 56 64 77 86 88 87 88 88 88 87 85 81 79 76 74 72 71 69 68 66 63
64 57 48 38 30 24 22 26 32 36 38 37 35 35 36 39 44 48 52 53 53 52 52 56 68 81 87 87 86 87 88 88 86 84 81 79 76 74 72 70 68 66 65
63 54 42 32 24 17 12 13 21 28 32 34 33 33 34 36 41 45 48 50 50 50 49 51 58 72 85 89 87 85 86 87 87 86 83 81 78 75 73 71 69 67 66
62 50 39 29 20 16 11 7 10 18 25 28 30 31 32 34 37 41 45 47 48 47 47 47 50 61 76 88 90 87 85 86 86 85 84 82 80 77 74 72 70 68 66
61 50 39 27 19 16 13 8 4 9 17 22 25 27 29 31 34 38 42 44 45 45 45 44 45 52 66 81 88 87 86 86 86 85 85 84 82 79 76 73 71 69 67
62 53 41 30 21 17 16 11 4 3 11 17 22 24 26 29 31 35 39 42 43 43 42 42 42 45 55 69 81 87 87 86 85 85 84 84 83 80 77 75 72 70 68
64 58 47 36 27 21 18 13 7 5 9 14 18 21 23 26 29 33 37 39 40 40 40 39 39 41 46 56 70 79 85 86 85 84 84 82 82 81 78 76 74 71 69
65 61 53 42 32 25 20 15 9 6 7 10 14 17 20 23 27 31 35 37 38 39 38 37 37 39 41 48 58 69 77 83 84 83 82 81 80 81 79 77 74 72 69
Wind_Direction
283 281 278 275 272 269 266 262 259 256 252 249 247 245 244 243 241 240 238 235 233 231 231 232 232 232 231 229 228 229 230 229 227 227 227 226 225 225 225 226 227 228 228
286 282 279 275 272 268 265 262 258 255 251 247 245 243 241 240 239 238 237 235 233 231 230 230 231 231 231 229 227 228 230 230 227 226 227 227 226 225 225 226 227 228 228
287 283 279 275 271 267 263 259 256 252 249 246 243 241 239 238 237 236 235 234 232 231 230 229 230 230 230 229 227 227 228 229 227 225 225 226 226 226 226 226 227 227 228
289 284 280 274 269 265 260 256 253 249 246 243 240 238 237 235 234 233 233 232 231 230 229 228 229 230 229 228 227 226 227 228 227 225 224 225 226 226 227 227 227 227 227
292 287 281 276 270 264 259 255 252 248 245 241 238 236 234 233 232 231 230 230 229 229 228 227 228 229 229 228 227 225 225 227 226 224 223 223 224 226 227 228 228 228 229
296 291 284 278 271 265 259 254 250 248 245 241 237 234 232 230 229 228 228 227 227 227 226 226 226 228 229 229 227 225 224 224 225 224 223 223 223 225 226 227 228 229 230
299 294 289 282 275 268 261 255 250 247 244 242 238 234 231 229 228 226 226 225 225 225 225 225 225 226 228 229 228 225 223 223 223 224 223 223 223 224 225 227 228 230 230
302 298 292 286 279 271 265 258 250 246 244 241 238 235 232 230 227 225 224 224 223 222 223 223 223 224 225 226 228 227 224 223 222 223 222 222 222 224 225 227 228 230 231
304 301 296 290 284 276 268 261 254 247 243 241 238 235 233 231 229 226 224 222 222 221 221 221 221 222 223 224 226 226 225 223 222 222 221 221 222 224 225 227 229 230 232
309 305 302 296 290 283 274 265 258 250 244 240 238 236 233 231 230 228 224 222 221 220 219 219 220 221 221 222 223 223 225 224 221 221 221 221 221 223 225 227 228 229 231
314 311 307 302 297 290 282 272 263 255 247 241 237 235 233 231 229 228 227 223 220 219 218 218 219 220 221 221 222 222 223 224 221 220 221 221 221 222 224 226 227 228 230
317 314 310 306 301 296 289 280 270 260 251 244 238 234 232 231 229 227 226 225 222 219 218 218 218 219 220 221 222 222 222 223 222 220 221 221 221 221 223 225 226 227 228
318 314 310 306 301 296 291 284 276 266 256 247 240 235 231 230 229 228 225 224 224 220 218 217 217 218 219 220 221 222 221 221 222 221 221 221 221 222 222 224 225 226 229
318 313 308 304 299 293 288 284 278 270 261 251 243 236 231 229 228 228 226 223 223 222 219 217 216 217 218 220 220 221 221 221 221 221 221 221 222 222 222 223 225 226 228
317 312 307 302 296 290 284 279 276 270 263 254 245 238 232 229 227 227 227 224 222 221 220 217 216 217 218 219 220 220 220 220 220 220 221 221 222 222 222 223 224 226 227
319 314 308 301 294 287 281 275 270 266 261 254 246 239 233 229 226 225 226 225 222 220 220 219 217 216 217 218 219 219 220 219 219 220 221 221 222 222 222 223 224 226 228
322 317 310 303 294 285 277 270 264 260 256 252 246 239 234 229 226 224 224 224 223 220 218 218 218 216 216 217 218 219 219 219 218 219 220 221 222 222 222 223 224 225 227
327 322 315 307 298 287 275 265 258 253 250 248 243 238 233 228 225 223 223 223 223 221 218 217 217 216 214 215 216 217 217 218 218 218 219 220 222 223 223 223 223 225 227
334 330 325 318 308 294 277 262 253 247 244 242 239 235 232 227 224 221 221 221 221 221 218 216 216 215 213 212 214 214 215 217 218 218 218 219 221 222 223 223 224 224 226
342 339 337 334 326 312 287 262 248 242 238 236 234 232 229 226 222 220 219 219 219 220 219 217 215 215 212 210 211 213 214 215 217 217 218 219 220 221 222 223 224 225 226
349 349 350 353 353 348 327 276 246 235 230 229 228 227 226 224 220 218 217 216 217 218 218 217 215 214 213 211 209 209 212 213 215 216 217 218 219 221 222 223 224 224 225
357 358 359 4 13 20 11 326 258 232 223 221 221 222 221 220 218 216 214 214 215 216 217 217 215 214 214 212 210 208 208 211 214 215 217 218 219 220 221 223 224 224 225
4 5 6 12 24 29 20 2 300 229 215 213 214 216 217 216 215 213 212 212 212 213 215 216 215 214 213 213 212 210 209 209 211 213 216 217 218 219 220 222 223 224 225
10 11 11 15 21 26 26 22 15 191 197 202 208 211 212 212 211 210 209 209 210 211 213 214 215 214 213 213 214 213 211 210 211 212 215 216 217 218 219 221 222 223 225
14 15 16 18 20 23 26 30 46 114 169 190 202 208 209 208 207 207 207 207 208 209 210 213 213 213 212 212 213 214 214 213 213 214 214 216 217 219 219 220 221 223 223
17 19 21 22 23 25 29 35 55 107 156 185 200 206 207 206 205 204 204 205 206 207 209 210 211 211 210 209 210 212 214 214 215 215 215 216 217 219 220 220 221 222 223
Height
5647 5642 5637 5635 5635 5636 5638 5641 5645 5651 5657 5664 5671 5678 5686 5693 5701 5709 5717 5724 5731 5738 5746 5752 5758 5764 5770 5776 5782 5787 5792 5797 5803 5808 5813 5817 5821 5825 5830 5834 5838 5843 5847
5616 5611 5607 5605 5605 5605 5607 5611 5616 5622 5629 5637 5645 5654 5663 5671 5681 5690 5699 5707 5715 5722 5730 5737 5744 5751 5757 5764 5771 5776 5782 5787 5792 5798 5804 5809 5814 5818 5822 5827 5831 5836 5840
5589 5584 5581 5579 5578 5578 5579 5582 5586 5593 5600 5609 5618 5628 5638 5649 5659 5669 5678 5688 5697 5705 5714 5721 5729 5736 5744 5751 5758 5765 5771 5777 5782 5788 5794 5800 5806 5810 5815 5819 5824 5829 5833
5566 5562 5558 5556 5555 5554 5555 5557 5561 5566 5573 5581 5591 5601 5613 5625 5637 5647 5657 5667 5677 5687 5696 5705 5713 5720 5728 5737 5744 5752 5759 5766 5771 5777 5784 5790 5797 5802 5807 5812 5817 5822 5826
5546 5541 5537 5535 5533 5533 5533 5535 5539 5543 5549 5555 5565 5576 5587 5599 5611 5623 5634 5646 5657 5668 5678 5688 5696 5704 5712 5721 5730 5738 5747 5754 5761 5767 5773 5780 5787 5793 5799 5804 5809 5814 5819
5528 5523 5519 5515 5513 5512 5513 5515 5518 5522 5527 5533 5541 5551 5562 5573 5585 5598 5611 5624 5636 5647 5659 5670 5679 5688 5697 5706 5715 5724 5733 5741 5749 5756 5763 5769 5776 5783 5790 5795 5801 5805 5811
5512 5506 5501 5497 5494 5493 5493 5495 5498 5503 5508 5513 5521 5530 5539 5548 5560 5573 5587 5601 5614 5627 5639 5651 5662 5672 5680 5690 5699 5709 5718 5727 5736 5745 5752 5759 5765 5773 5779 5786 5792 5797 5802
5496 5490 5485 5480 5477 5476 5475 5475 5478 5483 5488 5494 5501 5509 5518 5527 5537 5550 5562 5577 5591 5605 5618 5632 5644 5655 5664 5674 5683 5693 5703 5713 5723 5732 5741 5748 5755 5762 5769 5776 5782 5788 5793
5483 5476 5470 5466 5462 5460 5459 5458 5460 5464 5470 5475 5481 5489 5498 5506 5517 5528 5539 5554 5568 5583 5598 5612 5626 5638 5648 5658 5667 5677 5688 5698 5709 5719 5728 5737 5745 5752 5759 5766 5773 5779 5785
5470 5464 5458 5453 5449 5446 5444 5443 5444 5446 5451 5457 5463 5470 5478 5487 5496 5507 5517 5531 5545 5561 5577 5592 5607 5620 5631 5642 5651 5662 5673 5684 5694 5705 5715 5725 5734 5742 5749 5756 5763 5770 5776
5459 5453 5447 5441 5437 5433 5430 5429 5429 5430 5433 5439 5445 5452 5460 5469 5477 5487 5498 5510 5525 5540 5557 5573 5587 5601 5613 5625 5636 5647 5658 5669 5680 5691 5702 5712 5722 5731 5739 5746 5753 5760 5766
5451 5443 5437 5431 5426 5422 5419 5416 5415 5415 5417 5421 5427 5434 5442 5451 5460 5469 5480 5490 5503 5519 5536 5552 5567 5581 5594 5607 5619 5631 5643 5654 5666 5677 5688 5699 5709 5719 5728 5736 5743 5750 5757
5443 5435 5428 5421 5416 5411 5407 5404 5402 5401 5402 5405 5410 5417 5424 5433 5442 5452 5463 5473 5483 5498 5514 5530 5546 5561 5575 5588 5602 5615 5628 5640 5651 5663 5674 5685 5697 5707 5717 5725 5733 5740 5747
5432 5424 5416 5409 5403 5398 5394 5391 5389 5388 5388 5390 5394 5400 5408 5416 5425 5435 5446 5456 5467 5478 5493 5509 5525 5541 5556 5570 5585 5599 5613 5626 5638 5649 5661 5672 5684 5695 5705 5715 5723 5730 5738
5419 5410 5401 5394 5387 5382 5378 5376 5375 5374 5374 5376 5379 5384 5391 5400 5410 5419 5429 5440 5451 5462 5475 5491 5506 5522 5538 5554 5569 5583 5598 5612 5624 5636 5647 5659 5670 5682 5693 5704 5712 5720 5728
5404 5393 5383 5375 5368 5363 5359 5358 5358 5359 5360 5362 5365 5370 5376 5384 5394 5404 5414 5425 5436 5447 5459 5472 5488 5504 5520 5537 5552 5568 5582 5597 5610 5622 5634 5645 5657 5669 5681 5692 5702 5710 5718
5388 5375 5363 5352 5345 5340 5337 5337 5339 5342 5345 5348 5352 5356 5362 5370 5379 5389 5399 5410 5421 5432 5444 5456 5470 5486 5503 5520 5536 5552 5567 5581 5595 5608 5621 5633 5644 5656 5668 5679 5689 5699 5708
5371 5355 5340 5328 5319 5314 5313 5314 5318 5324 5329 5334 5338 5344 5350 5357 5366 5375 5386 5397 5407 5419 5430 5442 5453 5469 5487 5503 5519 5536 5551 5566 5580 5594 5607 5619 5632 5643 5655 5666 5677 5688 5697
5355 5336 5319 5307 5298 5293 5291 5293 5299 5306 5313 5320 5326 5332 5338 5345 5354 5363 5373 5384 5395 5406 5417 5428 5439 5453 5471 5487 5503 5519 5535 5551 5566 5580 5593 5606 5618 5630 5642 5654 5665 5676 5686
5341 5321 5305 5292 5283 5278 5276 5278 5283 5290 5299 5307 5314 5321 5328 5334 5343 5352 5362 5373 5384 5395 5406 5416 5426 5438 5454 5471 5487 5503 5519 5535 5551 5565 5578 5592 5605 5617 5630 5642 5654 5664 5674
5331 5312 5297 5285 5276 5271 5269 5269 5271 5278 5287 5296 5305 5312 5318 5325 5333 5342 5352 5363 5374 5385 5395 5405 5414 5425 5439 5455 5472 5488 5504 5519 5534 5549 5564 5579 5593 5606 5616 5628 5640 5651 5662
5327 5309 5294 5283 5276 5271 5268 5267 5268 5273 5281 5289 5297 5304 5311 5318 5325 5334 5344 5354 5365 5375 5385 5395 5403 5413 5424 5439 5456 5471 5488 5504 5521 5538 5551 5564 5578 5591 5603 5616 5627 5638 5649
5328 5310 5296 5286 5278 5273 5271 5269 5269 5272 5278 5285 5292 5299 5305 5312 5319 5328 5337 5347 5357 5367 5377 5386 5394 5402 5412 5426 5444 5462 5475 5489 5506 5521 5535 5550 5563 5577 5590 5602 5614 5625 5637
5331 5314 5300 5290 5283 5278 5275 5273 5272 5274 5278 5283 5289 5294 5301 5308 5315 5323 5332 5341 5350 5360 5370 5378 5387 5395 5403 5415 5429 5445 5460 5476 5492 5506 5520 5535 5549 5563 5576 5589 5601 5613 5624
5337 5320 5306 5296 5289 5284 5280 5277 5276 5277 5280 5283 5288 5294 5299 5305 5312 5319 5327 5336 5345 5354 5363 5371 5379 5387 5395 5406 5418 5432 5447 5463 5478 5492 5506 5521 5535 5549 5563 5575 5588 5600 5611
5343 5328 5314 5303 5295 5290 5286 5283 5282 5281 5283 5286 5289 5294 5298 5303 5309 5315 5323 5332 5340 5349 5357 5366 5373 5381 5389 5398 5408 5421 5435 5450 5465 5479 5493 5509 5522 5536 5549 5562 5575 5587 5598